Location: Go?cza
(50.3372°N, 19.9313°E)
Time: 23:38:27
(UTC+00:00)

SL-27 R/B - Pass Details

Date: 23 May 2024
Orbit: 327 x 351 km, 74.7° (Epoch: 22 June)

Event Time Altitude Azimuth Distance (km) Brightness Sun altitude
Exits shadow 01:12:33 16° 182° (S) 983 3.6 -11.2°
Maximum altitude 01:14:32 50° 109° (ESE) 430 2.4 -11.0°
Drops below altitude 10° 01:17:13 10° 32° (NNE) 1,264 6.3 -10.7°
Sets 01:19:11 0° 27° (NNE) 2,105 7.7 -10.5°
